Location: Newark
(35.6799°N, 139.7636°E)
Time: 19:09:13
(UTC+00:00)

Transit 2A - Pass Details

Date: 15 December 2019
Orbit: 601 x 957 km, 66.7° (Epoch: 18 January)

Event Time Altitude Azimuth Distance (km) Brightness Sun altitude
Rises 18:59:39 0° 174° (S) 3,160 9.3 -32.4°
Reaches altitude 10° 19:02:32 10° 160° (SSE) 2,176 8.6 -31.8°
Maximum altitude 19:06:16 22° 110° (ESE) 1,454 8.1 -31.0°
Drops below altitude 10° 19:09:49 10° 59° (ENE) 2,042 8.8 -30.3°
Sets 19:12:25 0° 44° (NE) 2,915 9.5 -29.8°
